Wetbulb
60.31 57.55 56.74 59.21 60.69 60.41 58.61 57.49 56.69 58.86 63.08 61.91 61.39 61.89 64.37 68.32 68.70 68.13 68.29 68.31 67.45 68.64 70.59 71.28 72.20 73.01 73.60 74.28 74.91 75.29 74.80 76.02 75.65 75.02 74.79 74.72 74.58 75.89 76.41 77.36 78.58 78.94 79.08 79.81
57.76 54.95 59.06 60.90 60.09 59.31 58.60 56.80 56.65 58.21 61.92 62.08 60.97 61.46 65.05 67.35 67.93 68.62 68.80 68.94 68.52 68.54 69.86 70.75 71.57 72.57 72.81 73.89 74.91 75.81 75.95 76.53 75.96 75.90 75.90 75.93 76.21 76.83 78.09 79.87 79.03 79.87 79.79 79.97
55.22 56.81 58.92 59.02 58.11 58.02 58.13 57.02 56.31 56.41 59.83 61.45 62.09 56.84 62.31 66.25 68.27 68.86 69.54 70.25 70.08 69.05 68.89 70.06 70.90 71.87 72.65 73.33 74.40 75.72 76.90 77.11 77.19 78.82 76.63 77.00 77.82 78.03 76.89 77.15 77.33 78.82 79.94 80.07
55.13 57.55 56.58 57.07 57.13 58.29 55.88 59.16 57.22 57.13 56.91 54.88 59.58 54.68 60.35 63.94 65.28 67.66 68.35 69.16 69.85 70.27 69.74 70.17 70.48 71.15 72.07 73.21 74.26 76.01 77.45 77.55 77.62 78.71 78.32 80.03 75.96 74.87 75.66 77.58 79.41 79.30 79.58 79.17
52.70 53.33 53.33 54.06 56.74 58.85 56.67 58.92 58.21 57.94 56.37 56.11 56.96 54.29 58.20 62.43 62.51 65.36 67.60 69.04 69.44 70.91 70.48 69.59 70.21 71.40 72.26 73.18 73.50 74.98 78.16 79.82 79.80 79.65 80.14 77.40 77.67 75.82 76.24 76.50 79.76 79.12 79.73 79.07
53.77 56.88 55.49 55.28 57.43 58.37 59.57 56.87 58.42 58.56 56.84 52.47 56.74 53.62 56.29 58.58 59.76 62.91 67.19 68.58 69.56 70.29 71.21 71.21 71.16 71.39 71.76 72.57 72.98 73.87 78.50 80.19 79.87 79.38 78.45 80.03 80.67 78.72 76.80 77.65 77.04 76.59 78.40 77.99
53.49 53.33 55.66 56.47 54.60 57.62 57.59 54.93 51.97 51.47 51.48 51.24 56.55 52.72 54.67 59.65 61.07 62.63 65.82 67.91 69.62 70.58 71.34 71.46 71.58 70.80 70.86 71.46 72.43 73.20 76.46 77.54 78.11 77.98 78.14 78.24 79.60 80.25 79.13 78.51 77.25 78.16 77.06 75.87
50.41 49.11 53.73 55.81 54.57 55.25 55.17 55.32 52.36 48.42 49.15 50.84 55.09 52.69 55.52 61.23 63.71 64.91 65.99 68.20 69.27 70.04 71.05 71.53 72.14 72.45 72.08 72.02 72.26 73.26 74.30 77.21 77.85 78.20 79.73 80.88 81.32 77.85 77.72 78.72 77.82 77.40 78.24 77.54
50.69 50.31 54.86 55.49 56.34 55.65 55.09 54.36 57.95 53.52 54.25 51.17 54.40 55.12 58.47 61.73 63.31 64.37 65.25 66.75 68.00 69.39 70.50 71.80 72.50 72.95 72.88 72.64 72.68 73.45 75.15 76.34 77.52 77.78 79.42 80.88 80.91 80.43 78.88 81.81 80.36 78.23 79.34 78.42
53.60 50.01 54.46 54.41 55.30 55.53 54.58 57.37 52.85 53.76 48.69 47.55 51.81 52.31 55.73 59.55 62.13 63.85 64.42 65.84 68.14 69.12 69.96 71.00 72.32 72.78 73.29 73.25 73.17 73.64 74.06 75.13 77.15 77.74 78.45 78.35 79.50 80.31 80.26 80.77 80.61 80.07 79.54 79.46
54.77 52.55 52.57 54.50 52.45 51.85 52.52 51.96 54.74 55.15 54.10 50.35 49.67 52.69 59.91 61.79 63.24 63.44 64.90 66.53 68.23 69.27 69.67 70.64 72.64 73.08 73.43 73.68 73.70 73.20 73.97 75.36 77.29 78.58 79.44 80.49 79.52 79.14 79.23 78.39 79.23 79.58 79.39 79.15
55.83 53.04 50.28 52.00 55.85 56.20 55.04 53.97 53.96 51.46 51.48 52.91 52.86 53.70 61.06 62.76 64.08 64.63 65.76 67.24 68.78 70.35 70.42 70.73 71.79 72.94 73.26 73.51 74.78 75.73 75.57 75.30 78.23 80.43 81.01 80.26 79.17 79.52 78.45 78.38 79.16 80.53 79.33 78.88
57.56 52.34 48.60 50.31 53.36 55.11 52.63 54.18 55.18 55.10 54.87 52.77 50.97 52.83 61.91 63.08 63.84 65.15 66.47 67.97 69.07 70.23 71.09 71.91 71.84 72.28 73.29 73.51 74.57 77.33 79.46 78.33 79.26 79.41 78.08 78.01 78.23 78.30 78.11 78.37 78.85 80.05 79.83 79.39
62.94 54.48 51.37 48.47 51.75 54.50 52.38 52.41 53.63 53.18 50.77 51.64 52.07 55.35 59.41 61.59 62.72 64.67 65.39 67.03 68.28 69.83 70.98 72.19 72.23 73.39 75.52 78.43 80.18 79.99 77.86 78.25 79.35 77.63 77.82 78.56 78.40 79.18 78.20 79.87 80.35 78.81 79.36 77.90
57.96 53.48 54.40 54.05 53.95 53.35 53.18 52.83 52.64 52.10 53.12 51.28 53.66 54.43 59.64 61.71 63.08 65.25 67.70 68.64 68.09 67.86 69.55 70.28 71.26 73.12 75.02 77.93 78.80 79.86 78.49 79.37 78.29 80.32 79.95 79.62 80.42 80.64 80.90 82.02 80.85 79.67 79.14 77.82
58.80 53.51 54.94 53.28 54.93 53.29 51.88 52.83 53.16 53.51 53.37 53.70 54.20 54.08 60.82 63.05 65.49 66.36 67.39 69.41 70.29 71.20 70.14 70.37 71.15 72.36 73.91 75.21 76.49 78.84 79.76 79.76 79.19 79.48 79.01 80.93 82.03 82.25 81.42 81.95 80.46 79.28 78.75 76.86
56.16 54.83 54.43 52.52 55.80 53.36 50.63 53.38 53.60 53.67 54.70 54.01 52.34 57.19 61.26 61.87 64.66 66.32 67.85 69.45 69.70 70.38 72.29 73.02 72.69 71.57 72.92 74.99 77.45 76.88 78.32 79.01 79.90 80.34 80.29 81.22 81.55 81.42 81.54 79.23 70.84 64.50 65.05 72.63
55.95 55.37 55.37 44.92 51.34 47.59 54.16 59.86 57.23 54.71 55.03 57.06 57.58 60.80 62.84 63.31 66.10 67.31 68.68 69.16 69.96 70.70 72.06 73.85 73.95 73.95 72.74 72.96 75.81 77.41 77.85 79.64 79.93 80.30 80.66 81.40 81.03 79.99 75.27 65.08 65.47 70.02 69.62 63.91
58.02 55.78 52.71 50.63 50.73 48.39 50.86 57.54 55.79 55.59 55.60 59.14 58.06 62.03 63.65 64.78 65.62 66.25 68.14 68.67 69.42 71.44 72.10 74.30 75.10 73.31 74.76 74.89 75.57 77.47 77.20 77.70 78.18 78.44 79.76 80.22 76.92 69.65 67.03 67.19 66.93 66.39 72.13 70.77
54.65 57.81 53.15 52.19 48.77 44.50 54.15 57.62 61.49 60.41 53.56 63.17 63.19 63.03 63.15 63.67 59.22 64.55 67.58 68.31 69.17 70.84 72.20 73.67 76.58 75.26 76.68 77.11 77.14 77.35 77.37 77.70 77.76 78.72 72.54 68.86 68.99 67.89 69.67 68.58 66.65 69.47 71.14 69.26
46.45 50.01 51.24 49.77 49.87 52.26 58.33 58.08 60.71 49.93 57.41 64.59 65.07 65.77 65.74 65.30 66.38 67.33 67.95 68.37 70.92 70.73 71.71 73.15 76.06 76.91 77.18 78.49 78.00 77.73 77.94 77.78 75.01 73.21 72.99 71.20 73.04 71.68 67.70 69.82 72.19 72.23 70.46 68.44
48.53 45.84 45.04 52.82 50.60 48.84 62.20 61.20 56.72 61.34 63.24 63.68 65.30 65.83 65.35 66.04 66.21 67.09 67.73 67.75 70.88 70.94 71.64 71.70 73.85 76.86 77.97 78.43 78.31 78.02 77.73 74.49 74.41 74.29 73.39 73.54 73.91 70.17 69.30 71.63 70.65 69.24 68.25 67.17
52.87 56.13 53.50 54.95 53.89 56.52 63.32 62.49 63.58 63.83 63.65 63.41 63.41 63.43 64.41 65.22 66.29 66.83 67.41 67.50 68.85 71.70 72.15 72.42 72.89 76.24 77.00 77.96 77.63 75.77 72.57 74.27 74.19 74.74 74.53 73.98 72.29 71.14 69.98 70.37 68.71 66.73 66.96 65.86
52.58 56.61 57.73 56.07 58.28 58.12 61.11 62.66 63.41 63.87 63.18 63.78 64.66 64.52 64.57 63.73 65.17 66.46 67.31 67.53 68.28 70.94 72.74 73.67 73.37 74.94 74.26 75.41 76.17 75.47 73.86 73.47 71.67 72.73 73.60 71.90 70.81 69.74 70.76 69.09 69.02 66.72 65.23 66.49
56.90 52.77 54.37 58.06 59.79 61.03 61.49 62.54 63.03 63.19 63.61 63.31 63.99 64.20 64.56 65.16 64.96 65.20 66.32 67.67 68.19 71.70 72.86 73.90 73.89 74.97 75.45 75.15 74.67 74.26 73.48 73.08 71.91 71.64 71.93 72.56 70.69 69.60 69.55 69.04 68.25 67.40 68.62 66.61
58.42 55.35 55.51 56.07 59.61 60.71 60.12 62.40 62.89 61.87 62.03 63.03 63.92 64.02 64.59 65.13 65.66 66.64 66.27 67.78 68.52 69.12 73.83 73.99 74.45 74.58 75.20 75.83 75.32 75.15 73.45 72.78 71.86 72.51 71.38 70.27 69.68 68.45 68.88 66.22 64.12 49.94 54.54 51.53
MSLP
1000.90 1000.21 999.12 998.10 997.57 998.21 998.45 998.16 997.61 997.92 998.77 998.77 998.36 998.60 998.89 1000.17 1000.82 1001.11 1001.92 1002.58 1003.51 1004.07 1004.59 1005.20 1005.75 1006.44 1007.06 1008.24 1009.32 1010.21 1010.87 1011.56 1012.18 1012.50 1012.64 1012.66 1012.40 1012.32 1012.41 1012.37 1012.71 1013.26 1013.51 1013.63
999.95 999.27 998.87 998.31 998.40 998.74 998.46 997.92 997.25 997.80 998.32 998.58 997.98 998.11 998.45 999.39 1000.06 1000.29 1000.94 1001.75 1002.50 1003.36 1003.82 1004.62 1005.32 1005.74 1006.53 1007.58 1008.78 1009.82 1010.61 1011.35 1012.01 1012.10 1012.14 1011.95 1011.96 1011.79 1012.02 1012.11 1012.33 1012.90 1013.09 1013.38
999.17 998.29 998.21 998.43 998.47 998.55 998.01 997.26 997.69 998.10 997.79 997.78 997.97 999.50 997.97 998.56 999.46 999.92 1000.12 1000.84 1001.51 1002.19 1002.89 1004.00 1004.79 1005.29 1005.99 1006.92 1008.22 1009.28 1010.28 1010.95 1011.64 1011.67 1011.93 1012.13 1012.15 1012.24 1012.16 1012.11 1012.17 1012.48 1012.77 1013.22
998.78 998.56 998.31 998.51 998.50 998.45 997.44 997.59 998.12 998.01 997.42 997.66 996.67 996.95 997.91 997.80 998.43 999.21 999.63 1000.01 1000.55 1001.27 1002.31 1003.05 1003.99 1004.71 1005.48 1006.40 1007.49 1008.59 1009.71 1010.53 1011.15 1011.65 1011.32 1011.65 1011.69 1011.54 1011.26 1011.41 1012.24 1012.57 1013.10 1013.17
998.34 998.38 998.34 998.10 998.17 997.97 997.74 998.13 998.25 998.07 997.35 995.76 995.92 995.46 996.80 996.89 996.88 997.84 998.60 999.03 999.73 1000.32 1001.43 1002.14 1003.04 1004.12 1004.78 1006.04 1006.84 1007.71 1008.87 1009.81 1010.45 1011.02 1011.34 1011.22 1011.61 1011.06 1011.15 1011.34 1012.22 1012.77 1013.18 1013.21
998.62 998.14 998.52 998.13 998.11 998.30 998.23 998.54 998.09 997.43 996.18 994.76 995.35 995.62 994.50 995.17 995.95 996.20 997.16 998.07 998.84 999.69 1000.42 1001.51 1002.35 1003.16 1004.08 1004.96 1006.02 1006.80 1007.95 1009.11 1010.00 1010.48 1011.17 1011.20 1011.01 1011.26 1010.83 1011.28 1011.71 1011.90 1012.07 1012.89
998.04 998.04 998.08 998.43 997.90 997.48 997.77 998.05 996.63 995.41 994.55 994.16 994.78 995.25 994.17 994.75 995.28 995.64 996.17 997.41 998.17 998.99 999.85 1000.62 1001.59 1002.33 1003.19 1004.03 1005.04 1006.02 1007.13 1008.51 1009.42 1010.04 1010.39 1010.93 1011.05 1011.23 1011.31 1011.39 1011.56 1011.51 1011.75 1012.57
996.28 996.20 996.69 997.45 997.78 996.67 997.45 997.20 996.07 995.03 994.26 994.11 994.61 994.34 994.01 994.78 995.25 995.88 996.17 996.72 997.86 998.61 999.28 999.97 1000.79 1001.74 1002.62 1003.45 1004.41 1005.31 1006.25 1007.69 1008.73 1009.44 1009.87 1010.41 1010.89 1011.01 1011.24 1011.36 1010.95 1010.92 1011.32 1011.88
996.32 996.05 996.37 996.53 997.07 997.59 996.71 996.27 996.30 995.71 995.15 994.44 993.63 993.99 994.13 994.68 995.03 995.79 996.10 996.85 997.50 998.21 998.87 999.78 1000.23 1001.09 1001.94 1002.91 1003.77 1004.67 1005.65 1006.81 1007.90 1008.59 1009.39 1009.98 1010.44 1010.63 1010.48 1010.65 1011.11 1011.12 1011.44 1011.83
997.07 996.48 996.41 996.57 997.40 997.04 996.82 996.27 995.82 995.64 995.40 994.83 993.74 993.93 993.73 994.79 995.56 995.92 995.98 996.43 997.08 997.85 998.44 999.11 1000.04 1000.44 1001.29 1002.05 1003.05 1004.04 1004.91 1005.91 1007.02 1007.63 1008.57 1009.26 1009.73 1010.15 1010.23 1010.42 1010.70 1010.80 1011.11 1011.75
997.68 997.11 996.44 996.63 996.76 996.01 996.39 996.43 996.08 995.29 994.61 994.00 993.96 993.57 994.28 995.37 996.01 996.14 996.08 996.40 996.77 997.48 998.07 998.62 999.51 1000.00 1000.71 1001.36 1002.20 1003.19 1004.30 1005.20 1006.15 1006.98 1007.59 1008.35 1008.95 1009.45 1009.94 1010.11 1010.54 1010.82 1011.08 1011.81
997.94 997.06 996.11 995.73 995.49 995.63 995.44 995.26 995.72 995.19 995.29 995.14 994.50 994.22 995.13 995.89 996.35 996.71 996.92 996.90 997.05 997.50 998.00 998.48 998.93 999.80 1000.22 1000.94 1001.65 1002.42 1003.34 1004.41 1005.40 1006.27 1007.02 1007.78 1008.38 1008.82 1009.18 1009.52 1009.91 1010.47 1010.94 1011.52
997.90 997.47 996.51 995.40 995.10 995.56 995.93 995.54 995.05 994.73 994.46 994.15 993.79 994.17 995.59 996.25 996.92 997.61 997.85 997.82 998.01 998.14 998.31 998.32 998.54 999.21 1000.05 1000.53 1001.14 1001.95 1002.80 1003.67 1004.79 1005.82 1006.57 1007.08 1007.62 1007.93 1008.03 1008.35 1008.73 1009.40 1010.22 1010.79
999.65 997.74 996.41 995.29 994.69 994.62 994.62 995.48 995.44 995.14 994.26 994.05 994.02 994.18 995.49 996.56 997.02 997.72 998.20 998.54 998.58 998.48 998.59 998.87 998.85 999.01 999.70 1000.59 1001.03 1001.62 1002.47 1003.32 1004.27 1005.20 1005.93 1006.23 1006.49 1006.55 1006.63 1007.07 1008.19 1009.26 1010.29 1011.01
999.21 997.64 996.92 996.10 995.50 995.64 995.39 994.59 994.87 994.97 994.65 993.99 993.79 993.78 995.68 996.69 997.19 997.98 998.41 998.62 998.55 998.43 998.26 998.28 998.87 999.26 999.78 1000.40 1001.22 1001.84 1002.45 1003.09 1003.80 1004.65 1005.09 1005.27 1005.60 1006.16 1006.93 1007.54 1008.48 1009.32 1010.09 1010.68
998.59 998.11 997.72 998.16 996.91 996.41 995.79 995.20 994.71 994.43 994.75 994.35 994.29 994.92 995.18 996.59 997.64 998.45 998.75 998.97 999.06 998.92 998.55 997.98 998.28 998.77 999.38 1000.11 1000.81 1001.48 1002.15 1002.76 1003.24 1003.76 1004.26 1005.17 1005.77 1006.17 1006.70 1007.44 1008.60 1009.58 1010.54 1011.28
998.76 998.32 998.44 998.50 998.56 996.91 996.00 995.12 994.73 994.43 994.68 994.77 995.05 995.35 996.45 997.35 998.26 998.88 999.31 999.49 999.57 999.34 999.04 998.88 998.31 997.96 998.33 998.79 1000.01 1000.91 1001.78 1002.49 1002.92 1003.50 1004.19 1004.64 1005.18 1005.97 1006.92 1007.86 1009.48 1010.79 1011.78 1012.10
999.87 999.42 999.15 1001.45 1003.88 998.56 996.19 995.45 994.66 994.82 994.79 995.21 995.40 996.27 997.71 998.28 998.51 999.65 1000.27 1000.20 1000.14 999.75 999.35 999.00 998.52 998.21 997.87 997.96 998.33 1000.07 1001.27 1002.27 1002.79 1003.31 1003.96 1004.76 1005.64 1006.50 1007.70 1008.97 1010.25 1010.60 1010.00 1010.58
1000.25 1000.58 999.96 1000.15 1000.44 1001.15 999.18 996.98 996.11 995.99 996.14 996.13 996.31 997.08 998.19 998.81 998.74 1000.11 1000.75 1000.72 1000.48 1000.13 999.71 999.26 998.72 998.54 998.45 998.27 998.33 999.77 1000.90 1002.07 1002.83 1003.58 1004.34 1005.22 1006.48 1008.02 1009.35 1010.95 1012.51 1011.81 1011.95 1012.00
1002.89 1001.15 1001.51 1001.11 1000.59 1000.73 999.69 1000.43 998.28 996.61 997.09 997.72 997.91 998.16 999.14 998.94 998.65 1000.05 1000.84 1000.81 1000.59 1000.41 1000.21 999.82 999.46 998.91 999.15 999.36 999.30 1000.20 1001.17 1002.19 1002.93 1003.61 1005.04 1006.18 1007.07 1008.06 1009.13 1010.02 1009.05 1010.60 1011.77 1011.38
1006.76 1004.81 1002.39 1001.67 1000.61 999.55 999.83 1000.23 999.67 1001.12 1000.26 999.94 999.64 1000.10 1000.05 999.85 1000.53 1001.01 1001.06 1001.06 1000.66 1000.78 1000.64 1000.42 1000.39 1000.26 1000.27 1000.31 1000.46 1001.23 1001.89 1002.78 1004.12 1005.10 1005.97 1006.79 1007.11 1007.50 1007.87 1008.38 1008.07 1009.75 1011.48 1011.14
1007.25 1007.28 1006.00 1001.99 1001.33 1001.15 1000.32 999.89 999.68 1001.29 1000.94 1001.50 1001.04 1000.74 1001.05 1001.19 1001.21 1001.16 1001.20 1001.11 1000.90 1000.98 1000.97 1000.67 1001.21 1001.27 1001.18 1001.23 1001.51 1002.14 1003.10 1004.45 1005.18 1005.72 1006.56 1007.16 1007.37 1007.95 1008.34 1008.68 1009.52 1009.68 1010.61 1011.97
1005.59 1006.16 1004.21 1004.15 1004.15 1004.55 1001.73 1001.37 1001.43 1001.31 1001.73 1001.71 1001.61 1001.31 1001.32 1001.26 1001.23 1001.22 1001.16 1001.14 1001.03 1001.17 1001.31 1001.38 1001.39 1002.41 1002.77 1002.76 1002.78 1003.62 1004.77 1005.28 1005.82 1006.31 1006.80 1007.32 1007.85 1007.95 1008.33 1008.58 1009.25 1009.15 1010.10 1011.87
1007.16 1006.65 1005.20 1003.74 1003.74 1003.89 1001.91 1001.93 1001.86 1001.69 1001.73 1001.74 1001.73 1001.67 1001.54 1001.33 1001.24 1001.18 1001.08 1001.12 1001.01 1001.10 1001.46 1001.78 1002.08 1002.66 1003.56 1003.86 1003.93 1004.55 1005.27 1005.68 1006.30 1006.57 1006.87 1007.29 1007.70 1008.18 1008.52 1009.15 1009.38 1009.74 1009.87 1010.99
1006.03 1006.81 1006.22 1003.69 1002.96 1002.40 1001.89 1002.38 1002.25 1002.34 1002.31 1002.33 1002.23 1002.02 1001.83 1001.65 1001.41 1001.21 1001.12 1001.17 1001.30 1001.31 1001.83 1002.15 1002.50 1002.94 1003.53 1004.12 1004.53 1005.06 1005.60 1006.02 1006.32 1006.70 1006.81 1006.86 1007.33 1008.42 1008.72 1009.13 1009.33 1009.61 1009.75 1010.59
1004.39 1005.58 1005.44 1002.85 1004.37 1004.12 1002.82 1002.49 1002.68 1002.63 1002.67 1002.52 1002.30 1002.13 1001.91 1001.77 1001.56 1001.50 1001.20 1001.07 1001.35 1001.68 1001.99 1002.59 1002.99 1003.34 1003.76 1004.12 1004.59 1005.16 1005.80 1006.18 1006.43 1006.22 1006.32 1006.55 1007.23 1008.43 1008.70 1009.43 1010.19 1010.30 1010.34 1010.64
Wind_Speed
16 14 14 15 7 9 6 8 10 9 4 6 3 5 4 13 15 15 15 17 18 19 18 18 16 17 14 17 13 13 12 11 9 8 8 7 7 6 5 5 2 3 5 6
16 14 16 14 7 8 10 12 4 2 3 7 4 6 10 12 15 15 16 16 18 19 20 19 19 17 18 16 15 14 12 12 11 9 7 6 6 5 4 3 3 4 5 3
18 16 10 16 9 14 13 13 10 10 11 7 6 6 7 14 13 15 16 18 18 19 21 20 21 19 17 17 16 15 14 13 12 11 8 6 3 3 4 6 7 6 4 1
17 15 17 10 13 14 16 7 5 10 15 7 10 1 11 12 13 16 17 17 18 18 19 22 22 21 18 16 17 15 15 14 13 12 9 9 7 8 7 6 6 5 3 3
14 13 15 17 17 12 11 9 10 11 14 21 6 9 15 11 14 15 18 20 18 19 19 19 22 22 20 19 16 16 15 13 12 13 12 9 10 7 5 5 8 1 4 1
16 8 9 13 14 18 16 8 14 15 17 13 9 7 2 6 6 2 16 18 20 19 20 19 20 20 20 19 18 17 15 13 13 13 14 11 9 9 6 6 5 6 5 6
17 18 15 12 12 18 16 14 13 11 13 3 11 7 5 8 7 2 9 15 18 18 18 19 18 17 18 20 19 17 15 13 14 16 15 15 12 9 8 5 7 4 5 5
12 16 21 17 15 11 17 18 13 8 8 9 2 1 5 10 6 3 3 12 14 17 17 17 19 17 18 17 19 17 17 15 15 15 14 11 11 9 9 9 7 6 4 7
13 13 6 9 13 14 16 14 13 16 14 11 1 8 5 7 9 6 5 6 11 15 16 17 15 17 17 18 19 18 16 16 16 17 12 11 11 11 10 8 9 6 4 8
17 10 6 4 8 15 18 17 10 10 10 10 3 6 11 12 9 6 2 5 9 11 16 16 16 17 16 18 18 18 18 16 16 16 14 13 13 12 10 9 9 8 7 7
14 15 12 8 12 15 13 15 14 17 10 8 4 8 12 12 8 5 4 3 8 9 13 15 15 14 16 15 17 18 17 17 15 15 14 12 12 13 13 11 10 10 10 10
15 14 14 17 10 13 14 12 19 13 14 10 11 3 12 11 11 6 3 3 6 9 9 11 14 14 14 15 14 14 16 16 14 13 12 12 13 12 13 13 13 11 11 13
7 9 13 15 16 11 9 16 12 16 18 15 11 7 13 12 11 7 5 3 4 3 4 9 13 14 14 14 14 13 11 14 14 13 14 15 15 15 15 16 16 15 14 14
7 15 17 12 9 9 17 16 17 18 14 10 11 11 13 10 11 9 5 2 4 6 8 8 8 9 12 10 9 11 13 12 13 15 16 15 16 16 17 15 14 15 13 14
10 17 16 15 16 6 16 13 18 14 17 18 5 3 18 10 11 8 9 8 5 4 8 13 13 10 9 11 11 10 12 12 14 13 14 16 15 13 11 10 12 13 13 13
15 16 13 12 18 11 17 16 17 18 16 17 7 2 14 11 9 9 7 9 9 9 8 6 11 12 14 14 14 13 13 13 15 16 16 12 11 11 11 11 11 10 6 8
18 14 12 10 22 17 15 15 17 14 13 7 12 5 11 10 9 9 10 10 10 11 9 6 12 8 12 14 12 14 15 14 14 13 13 13 13 12 11 9 12 8 6 3
16 16 8 6 21 9 4 11 7 11 11 8 10 14 10 5 10 12 10 10 11 13 13 9 7 9 9 10 14 13 14 13 13 13 12 12 12 11 12 14 8 5 18 17
15 16 13 12 8 9 25 7 5 5 3 8 6 10 8 2 8 11 8 9 9 11 12 12 10 7 6 7 6 11 13 13 13 13 12 10 11 14 12 8 7 6 4 8
25 12 12 14 16 4 21 11 25 2 8 8 9 7 3 4 7 10 7 8 9 11 11 12 12 5 3 4 6 9 11 12 12 12 12 15 14 13 9 6 12 10 12 8
13 12 10 15 13 13 10 2 3 11 8 8 8 8 7 9 8 6 5 7 8 8 10 9 10 8 5 1 6 8 10 10 12 14 15 15 14 12 6 3 9 13 11 12
9 6 11 18 11 8 7 7 6 6 3 6 7 5 3 4 4 5 5 7 7 7 7 8 9 8 6 3 4 5 8 10 12 13 14 14 11 4 2 8 10 14 13 12
5 8 6 9 4 15 12 8 8 8 7 4 4 5 5 7 5 5 6 6 7 5 4 7 6 7 7 5 4 5 9 10 12 12 12 9 5 5 7 10 11 10 12 10
5 17 17 10 23 27 4 2 6 8 8 6 7 7 7 9 9 8 8 7 6 4 3 2 3 5 5 3 4 8 10 12 10 8 10 5 5 7 9 8 8 9 9 10
7 7 22 14 10 6 8 2 5 8 7 5 6 7 8 9 10 11 9 6 6 2 1 1 2 2 5 4 5 7 8 9 8 7 8 7 6 8 9 8 7 9 10 8
8 10 16 6 11 14 3 7 7 9 10 10 9 8 8 9 10 10 12 8 5 7 5 3 3 3 5 5 6 9 9 8 10 9 6 6 5 7 6 7 6 15 8 8
Wind_Direction
204 237 242 256 295 15 309 297 296 49 42 294 270 338 164 170 194 183 181 184 188 197 190 179 197 176 177 159 172 177 187 173 184 197 197 203 217 202 221 230 182 241 246 245
242 229 258 270 319 296 288 280 18 329 104 262 343 316 178 180 199 210 184 189 189 194 190 196 191 191 184 177 177 179 192 181 197 194 215 209 215 204 198 191 160 211 248 238
234 244 218 242 259 253 247 277 19 323 298 242 272 283 140 173 197 205 201 195 193 190 194 189 192 201 191 178 188 182 192 188 199 228 202 198 233 270 202 212 216 186 212 181
252 238 268 239 247 256 269 46 299 311 302 153 246 191 13 151 181 202 208 203 196 191 198 185 197 198 196 194 181 191 188 200 197 208 217 207 212 216 208 190 104 60 58 224
241 229 244 246 244 242 285 5 303 302 292 281 132 285 192 144 186 192 212 203 208 190 187 198 194 195 199 190 197 186 188 191 214 194 235 195 229 217 232 227 106 187 141 105
257 301 269 268 239 247 268 286 262 249 249 261 75 344 293 116 36 206 184 213 200 201 192 195 195 198 197 191 194 196 174 186 195 206 206 236 210 246 247 192 177 227 150 157
225 235 223 243 259 238 220 243 259 244 231 232 73 294 328 35 26 5 166 189 201 201 200 190 193 199 197 198 192 196 175 186 197 206 205 212 219 208 230 207 207 264 187 136
245 213 210 204 235 246 205 245 266 300 298 1 148 268 66 64 76 86 120 168 191 196 201 207 192 198 193 200 196 199 183 185 195 203 206 204 207 210 219 202 255 203 215 156
269 236 96 217 211 234 251 241 268 284 287 254 285 60 262 103 85 118 153 149 181 197 205 196 205 199 195 196 201 200 198 185 197 198 200 202 201 219 208 228 203 216 222 119
262 271 245 211 224 244 241 265 236 218 262 273 235 254 99 76 38 95 172 160 174 194 197 193 205 201 202 195 200 203 200 202 195 202 194 200 201 202 221 206 210 222 178 158
252 261 266 166 220 240 198 243 250 281 289 301 263 86 102 100 87 11 106 101 139 169 192 196 191 205 197 204 197 200 203 202 192 200 188 195 197 199 204 209 205 217 177 171
231 264 237 236 245 212 268 231 230 238 227 268 301 22 90 80 74 44 56 57 74 146 179 199 188 200 202 200 208 202 192 199 189 189 189 188 195 198 196 204 198 200 184 179
293 226 252 254 230 176 240 256 262 247 247 255 269 135 95 97 88 75 45 348 171 203 187 203 193 194 202 209 203 197 196 184 181 189 191 192 196 197 201 197 197 190 184 182
303 265 258 263 254 321 204 216 243 245 257 251 240 135 121 86 68 49 40 46 270 238 206 213 231 211 192 202 212 193 195 192 182 191 194 197 198 202 204 195 196 186 182 185
246 261 273 276 292 299 284 257 212 239 257 254 337 203 102 74 58 44 34 21 6 245 241 213 210 212 204 184 202 201 196 196 195 192 199 205 201 202 206 185 187 181 183 187
238 253 276 308 275 256 257 255 267 226 232 255 287 300 68 71 65 41 24 26 20 2 327 289 194 204 204 207 203 202 198 195 198 193 203 195 193 192 192 177 173 175 180 224
289 285 297 300 305 232 234 246 233 241 225 239 244 62 49 53 70 55 39 46 25 15 348 301 303 236 215 201 194 208 197 194 195 190 195 188 186 184 179 138 92 91 92 146
257 270 258 137 285 282 285 6 217 237 210 219 286 78 63 32 95 71 41 37 16 9 3 347 294 274 263 230 178 189 182 191 189 184 188 178 178 174 111 111 104 115 141 156
223 255 274 289 192 194 300 200 200 226 284 263 242 77 69 346 147 108 64 39 22 6 8 1 343 322 309 318 176 164 173 182 187 184 181 169 106 95 97 86 36 325 234 160
326 262 241 253 284 198 272 9 360 359 207 39 14 60 348 286 253 81 48 30 27 7 16 14 360 9 73 274 114 156 171 182 185 177 101 117 125 131 137 138 159 240 227 184
298 327 247 218 256 272 107 227 314 310 50 25 25 53 12 22 23 47 29 19 7 359 13 36 29 25 36 225 154 180 165 167 109 129 134 140 156 163 187 144 143 147 145 117
161 59 321 304 224 239 15 176 206 94 96 14 0 55 22 7 354 355 356 351 10 344 8 21 53 35 38 47 150 157 119 126 144 146 150 164 176 193 192 138 125 125 126 137
222 305 193 279 61 317 345 50 67 57 84 27 10 345 328 304 302 316 302 309 327 353 353 357 38 64 44 19 101 121 128 153 158 162 168 159 219 222 188 152 156 133 138 157
10 323 298 287 123 198 152 77 51 44 42 7 30 353 335 311 298 291 298 305 321 352 277 35 6 73 95 82 107 136 158 157 162 175 177 182 187 161 171 158 160 151 144 174
103 55 311 299 284 196 155 106 26 24 350 347 326 334 337 320 305 286 268 260 279 321 227 176 168 142 123 142 135 138 152 160 166 182 205 210 181 173 166 171 173 173 166 187
193 164 240 313 28 337 17 346 313 304 301 295 284 293 309 305 297 290 277 264 260 286 152 192 187 174 148 166 155 150 160 172 191 203 189 177 182 172 169 150 133 43 73 90